Anchorage, AK

1:55 PM AKST on February 19, 2017 (GMT -0900)
Merrill

Weather History for PAMR - November, 2011

Change the Weather History Date:

Thursday, November 10, 2011

  Actual Average Record
Temperature  
Mean Temperature 18 °F -  
Max Temperature 26 °F 29 °F 51 °F (2014)
Min Temperature 9 °F 18 °F 5 °F (1996)
Degree Days  
Heating Degree Days 48    
Moisture  
Dew Point 16 °F    
Average Humidity 86    
Maximum Humidity 93    
Minimum Humidity 78    
Precipitation  
Precipitation 0.04 in - - ()
Snow  
Snow 0.00 in - - ()
Snow Depth 9.00 in    
Sea Level Pressure  
Sea Level Pressure 29.62 in    
Wind  
Wind Speed 2 mph (NNE)    
Max Wind Speed 7 mph    
Max Gust Speed -    
Visibility 6 miles    
Events Snow    
Averages and records for this station are not official NWS values.
T = Trace of Precipitation, MM = Missing Value Source: NWS Daily Summary

Daily Weather History Graph

Daily Weather History Graph

Search for Another Location

Airport or City:

Trip Planner

Search our weather history database for the weather conditions in past years. The results will help you decide how hot, cold, wet, or windy it might be!

Date:

Astronomy

Nov. 10, 2011 Rise Set
Actual Time 8:51 AM AKST 4:34 PM AKST
Civil Twilight 8:01 AM AKST 5:24 PM AKST
Nautical Twilight 7:08 AM AKST 6:17 PM AKST
Astronomical Twilight 6:18 AM AKST 7:07 PM AKST
Moon 4:05 PM AKST (11/10) 9:13 AM AKST (11/10)
Length of Visible Light 9h 22m
Length of Day
7h 42m
Full, 100% of the Moon is Illuminated
Nov 10
Full
Nov 18
Last Quarter
Nov 24
New
Dec 2
First Quarter
Dec 10
Full

Hourly Weather History & Observations

Time (AKST) Temp. Windchill Dew Point Humidity Pressure Visibility Wind Dir Wind Speed Gust Speed Precip Events Conditions
12:20 AM 19.4 °F 14.3 °F 15.8 °F 86% 29.59 in 3.0 mi NW 3.5 mph - 0.00 in Snow Light Snow
12:38 AM 19.4 °F 10.4 °F 15.8 °F 86% 29.58 in 5.0 mi North 6.9 mph - 0.00 in Snow Light Snow
1:00 AM 19.4 °F 11.5 °F 15.8 °F 86% 29.57 in 5.0 mi North 5.8 mph - 0.00 in Snow Light Snow
2:53 AM 19.0 °F - 15.1 °F 85% 29.54 in 6.0 mi Calm Calm - 0.01 in Snow Light Snow
3:53 AM 19.9 °F - 16.0 °F 85% 29.53 in 8.0 mi Calm Calm - 0.00 in Snow Light Snow
4:53 AM 19.0 °F - 16.0 °F 88% 29.52 in 2.0 mi Calm Calm - 0.00 in Snow Light Snow
5:04 AM 19.4 °F - 15.8 °F 86% 29.51 in 1.5 mi Calm Calm - 0.00 in Snow Light Snow
5:29 AM 19.4 °F - 17.6 °F 93% 29.50 in 2.0 mi Calm Calm - 0.00 in Snow Light Snow
5:41 AM 19.4 °F - 17.6 °F 93% 29.50 in 3.0 mi Calm Calm - 0.00 in Snow Light Snow
5:53 AM 19.9 °F - 17.1 °F 89% 29.51 in 5.0 mi Calm Calm - 0.00 in Snow Light Snow
6:19 AM 19.4 °F - 15.8 °F 86% 29.50 in 2.0 mi Calm Calm - 0.00 in Snow Light Snow
6:53 AM 19.9 °F - 17.1 °F 89% 29.50 in 2.0 mi Calm Calm - 0.00 in Snow Light Snow
7:00 AM 19.4 °F - 17.6 °F 93% 29.50 in 2.0 mi North - - 0.00 in Snow Light Snow
7:53 AM 21.0 °F - 18.0 °F 88% 29.53 in 2.0 mi Calm Calm - 0.00 in Snow Light Snow
8:41 AM 19.4 °F - 17.6 °F 93% 29.54 in 1.0 mi North - - 0.01 in Snow Light Snow
8:53 AM 19.9 °F - 17.1 °F 89% 29.56 in 1.0 mi North - - 0.01 in Snow Light Snow
9:53 AM 21.0 °F - 18.0 °F 88% 29.55 in 1.0 mi Calm Calm - 0.02 in Snow Light Snow
10:03 AM 21.2 °F - 17.6 °F 86% 29.54 in 5.0 mi Calm Calm - 0.00 in Snow Light Snow
10:53 AM 21.9 °F - 18.0 °F 85% 29.59 in 5.0 mi Calm Calm - 0.00 in   Overcast
11:00 AM 21.2 °F - 17.6 °F 86% 29.58 in 10.0 mi North - - N/A   Overcast
11:53 AM 21.9 °F - 19.0 °F 89% 29.62 in 10.0 mi North - - N/A   Overcast
12:53 PM 24.1 °F - 19.0 °F 81% 29.65 in 10.0 mi Calm Calm - N/A   Overcast
1:53 PM 26.1 °F - 19.9 °F 78% 29.68 in 10.0 mi Calm Calm - N/A   Mostly Cloudy
2:53 PM 25.0 °F - 19.0 °F 78% 29.70 in 10.0 mi Calm Calm - N/A   Scattered Clouds
3:53 PM 23.0 °F - 19.0 °F 85% 29.71 in 10.0 mi Calm Calm - N/A   Partly Cloudy
4:53 PM 19.0 °F - 16.0 °F 88% 29.71 in 10.0 mi Calm Calm - N/A   Partly Cloudy
5:53 PM 15.1 °F - 12.9 °F 91% 29.75 in 10.0 mi Calm Calm - N/A   Clear
6:53 PM 15.1 °F 9.4 °F 10.9 °F 84% 29.77 in 10.0 mi East 3.5 mph - N/A   Clear
7:53 PM 9.0 °F -0.9 °F 5.0 °F 84% 29.80 in 9.0 mi ENE 5.8 mph - N/A   Clear
8:53 PM 16.0 °F - 10.9 °F 81% 29.81 in 10.0 mi Calm Calm - N/A   Clear
9:53 PM 12.9 °F - 8.1 °F 81% 29.82 in 10.0 mi Calm Calm - N/A   Clear
10:53 PM 14.0 °F 8.2 °F 9.0 °F 80% 29.83 in 10.0 mi North 3.5 mph - N/A   Clear
11:53 PM 12.9 °F 6.9 °F 9.0 °F 84% 29.84 in 10.0 mi ENE 3.5 mph - N/A   Clear